Regional Weather Roundup
Issued by NWS

Home | Current Version | Previous Version | Text Only | Print | Product List | Glossary On
Versions: 1 2 3 4 5 6 7 8 9 10 11 12 13 14 15 16 17 18 19 20 21 22 23 24 25 26 27 28 29 30 31 32 33 34 35 36 37 38 39 40 41 42 43 44 45 46 47 48 49 50
000
ASUS46 KSEW 280510
RWRWA

WASHINGTON REGIONAL WEATHER ROUNDUP
NATIONAL WEATHER SERVICE SEATTLE WA
1000 PM PDT WED AUG 27 2014

NOTE:"FAIR" INDICATES FEW OR NO CLOUDS BELOW 12,000 FEET WITH NO
SIGNIFICANT WEATHER AND/OR OBSTRUCTIONS TO VISIBILITY.

WAZ505-507>509-280600-
SEATTLE, TACOMA, EVERETT, AND VICINITY

CITY           SKY/WX    TMP DP  RH WIND       PRES   REMARKS
EVERETT        CLOUDY    64  55  72 N12G18    30.03S
BOEING FIELD   PTCLDY    73  57  57 CALM      30.01R
RENTON         CLEAR     74  60  61 N7        30.01R
SEATAC AIRPORT PTCLDY    66  57  72 W3        30.04R
JBLM-MCCHORD   CLEAR     70  55  59 N2        30.04R
PUYALLUP       NOT AVBL
JBLM-FT LEWIS  CLEAR     70  55  60 S3        30.03S
TACOMA NARROWS CLEAR     68  55  63 S7        30.03S
$$

WAZ001-503-506-510-514-515-280600-
NORTH INTERIOR

CITY           SKY/WX    TMP DP  RH WIND       PRES   REMARKS
BELLINGHAM     MOCLDY    65  55  70 S8G16     29.98S
FRIDAY HARBOR  CLOUDY    57  53  86 SW3       30.00S
EASTSOUND      PTCLDY    63  55  77 S5        29.97S
PORT ANGELES   CLEAR     62  56  80 W8        30.04F
NAS WHIDBEY    MOCLDY    59  55  87 SW17      30.03S
BURLINGTON     MOCLDY    63  55  77 SE8       30.03R
$$

WAZ020-022-039-040-504-511-512-280600-
SOUTHWEST INTERIOR

CITY           SKY/WX    TMP DP  RH WIND       PRES   REMARKS
SHELTON        CLEAR     61  54  77 W14       30.02R
OLYMPIA        CLEAR     64  54  69 S5        30.04R
CHEHALIS       FAIR      63  57  82 SW6       30.06S
KELSO          CLEAR     66  54  63 CALM      30.10S
VANCOUVER      CLEAR     73  55  53 NW7       30.02R
SCAPPOOSE, OR  PTCLDY    72  55  55 NW12      30.03R
PORTLAND, OR   CLEAR     73  57  57 NW13G22   30.02R
$$

WAZ021-516-517-280600-
WASHINGTON COAST

CITY           SKY/WX    TMP DP  RH WIND       PRES   REMARKS
FORKS          FOG       60  59  96 CALM      30.09S VSB 1
HOQUIAM        CLOUDY    60  59  96 W8        30.09S
ASTORIA, OR    LGT RAIN  60  56  86 NW9       30.10S
$$

WAZ019-023-024-040-518-519-280600-
CASCADE MOUNTAINS AND COLUMBIA GORGE

CITY           SKY/WX    TMP DP  RH WIND       PRES   REMARKS
STAMPEDE PASS  NOT AVBL
TROUTDALE, OR  CLEAR     74  58  57 VRB6      30.00R
THE DALLES, OR CLEAR     82  54  37 W17       29.93R
$$

WAZ026-027-041>044-520-521-280600-
EAST SLOPES

CITY           SKY/WX    TMP DP  RH WIND       PRES   REMARKS
OMAK           CLEAR     78  49  35 CALM      29.86R
WENATCHEE      CLEAR     81  51  35 NW15      29.92S
ELLENSBURG     CLEAR     74  55  51 NW16      29.98R
YAKIMA         CLEAR     77  57  50 NW9       29.95R
$$

WAZ028-034-035-280600-
COLUMBIA BASIN

CITY           SKY/WX    TMP DP  RH WIND       PRES   REMARKS
EPHRATA        CLEAR     81  50  33 NW13      29.88S
MOSES LAKE     CLEAR     77  55  46 NW9       29.89R
PASCO          CLEAR     81  55  40 NW14      29.86R
HERMISTON, OR  CLEAR     82  54  37 SW13      29.88R
$$

WAZ036>038-280600-
NORTHEAST WASHINGTON

CITY           SKY/WX    TMP DP  RH WIND       PRES   REMARKS
SPOKANE GEIGER PTCLDY    77  47  34 SW8       29.95S
SPOKANE FELTS  CLEAR     71  47  42 N3        29.94S
FAIRCHILD AFB  CLEAR     70  46  43 CALM      29.96F
COEURDALENE,ID CLEAR     72  48  43 S3        29.95S
DEER PARK      CLEAR     73  46  38 SW6       29.94S
$$

WAZ029>033-280600-
SOUTHEAST WASHINGTON

CITY           SKY/WX    TMP DP  RH WIND       PRES   REMARKS
PULLMAN        CLEAR     63  43  48 CALM      30.01S
LEWISTON, ID   CLEAR     78  47  33 SW5       29.92S
WALLA WALLA    CLEAR     82  48  30 SE7       29.91F
PENDLETON, OR  CLEAR     81  50  33 W17       29.94S
$$


USA.gov is the U.S. government's official web portal to all federal, state and local government web resources and services.